Torna al catalogo

FENGYUN 1C DEB

AttivoPO
NORAD 31088·DEBRIS·🇨🇳 China

Lanciato May 10, 1999 da Taiyuan Satellite Launch Center

Loading…

Prossimi Passaggi (prossime 24 ore)

TLE

AggiornatoSource: Space-Track

Epoca: Sep 12, 2026, 17:10 UTC

1 31088U 99025BGJ 26255.71576588  .00002286  00000-0  89269-3 0  9997
2 31088  99.3963 342.4981 0026295 355.8144 157.0214 14.30545567  4516

Traccia FENGYUN 1C DEB in tempo reale con AllMySat

Download on the App Store